Location: ?????
(42.2640°N, 43.4211°E)
Time: 13:35:31
(UTC+00:00)

Meteor 1-24 Rocket - Pass Details

Date: 07 August 2020
Orbit: 789 x 928 km, 81.3° (Epoch: 19 September)

Event Time Altitude Azimuth Distance (km) Brightness Sun altitude
Rises 00:17:04 0° 341° (NNW) 3,387 7.2 -17.6°
Reaches altitude 10° 00:19:42 10° 332° (NNW) 2,428 6.3 -17.2°
Maximum altitude 00:24:32 34° 270° (W) 1,317 4.3 -16.6°
Enters shadow 00:26:23 26° 233° (SW) 1,517 4.4 -16.3°
